GFM11WT VNLK-ZUNZ

Flight info

Callsign GFM11WT
Flight time 1h 53m
Altitude 31000
Route TUMLI B345 NONIM/K0600S0945 B345 LXA W500 DM W9 DUMIX
Aircraft TBM9/L-SDFGRWY/S

Departure

Time 2026-05-04 19:02
Airport Tenzing-Hillary Airport (VNLK)

Arrival

Time 2026-05-04 20:56
Airport Nyingchi Mainling Airport (ZUNZ)
Time Latitude Longitude Altitude Speed Heading
2026-05-04 18:46 27.68733 86.73171 9403 ft 0 kts 248°
2026-05-04 18:58 27.68736 86.73162 9398 ft 3 kts 334°
2026-05-04 18:58 27.68763 86.73170 9398 ft 4 kts 355°
2026-05-04 18:58 27.68789 86.73171 9396 ft 5 kts 77°
2026-05-04 18:58 27.68801 86.73181 9395 ft 1 kts 326°
2026-05-04 18:59 27.68802 86.73172 9397 ft 2 kts 224°
2026-05-04 18:59 27.68791 86.73167 9396 ft 0 kts 243°
2026-05-04 19:01 27.68791 86.73166 9397 ft 4 kts 243°
2026-05-04 19:01 27.68642 86.72876 9242 ft 92 kts 240°
2026-05-04 19:02 27.68215 86.72078 8922 ft 164 kts 237°
2026-05-04 19:02 27.67301 86.71251 9357 ft 180 kts 203°
2026-05-04 19:02 27.66111 86.70772 10043 ft 177 kts 201°
2026-05-04 19:02 27.64946 86.70371 10652 ft 180 kts 195°
2026-05-04 19:03 27.63861 86.70085 11202 ft 182 kts 194°
2026-05-04 19:03 27.62573 86.69820 11607 ft 195 kts 191°
2026-05-04 19:03 27.61215 86.69609 12189 ft 203 kts 190°
2026-05-04 19:03 27.59803 86.69307 12571 ft 207 kts 192°
2026-05-04 19:04 27.58441 86.69076 12998 ft 214 kts 191°
2026-05-04 19:04 27.56946 86.68871 13629 ft 218 kts 191°
2026-05-04 19:04 27.55415 86.68760 14079 ft 224 kts 177°
2026-05-04 19:04 27.53909 86.69275 14559 ft 229 kts 162°
2026-05-04 19:05 27.52529 86.69930 15004 ft 230 kts 161°
2026-05-04 19:05 27.51054 86.70637 15464 ft 231 kts 161°
2026-05-04 19:05 27.49570 86.71356 15937 ft 233 kts 161°
2026-05-04 19:05 27.48073 86.72095 16398 ft 236 kts 161°
2026-05-04 19:06 27.46701 86.72782 16825 ft 238 kts 161°
2026-05-04 19:06 27.45186 86.73553 17262 ft 240 kts 161°
2026-05-04 19:06 27.43662 86.74343 17747 ft 242 kts 161°
2026-05-04 19:06 27.42132 86.75149 18197 ft 244 kts 161°
2026-05-04 19:07 27.40688 86.75921 18596 ft 245 kts 161°
2026-05-04 19:07 27.39154 86.76764 19016 ft 246 kts 161°
2026-05-04 19:07 27.37711 86.77846 19384 ft 257 kts 140°
2026-05-04 19:07 27.36571 86.79429 19720 ft 263 kts 132°
2026-05-04 19:08 27.35636 86.80914 20075 ft 266 kts 131°
2026-05-04 19:08 27.34585 86.82638 20449 ft 268 kts 131°
2026-05-04 19:08 27.33541 86.84387 20840 ft 270 kts 131°
2026-05-04 19:08 27.32505 86.86157 21248 ft 272 kts 131°
2026-05-04 19:09 27.31563 86.87793 21608 ft 275 kts 132°
2026-05-04 19:09 27.30543 86.89619 21998 ft 277 kts 130°
2026-05-04 19:09 27.29519 86.91468 22329 ft 280 kts 131°
2026-05-04 19:09 27.28803 86.93385 22634 ft 295 kts 107°
2026-05-04 19:10 27.28788 86.95638 23036 ft 302 kts 86°
2026-05-04 19:10 27.29127 86.97986 23401 ft 307 kts 82°
2026-05-04 19:10 27.29498 87.00362 23710 ft 309 kts 85°
2026-05-04 19:10 27.29765 87.02747 24034 ft 310 kts 88°
2026-05-04 19:11 27.29985 87.05014 24261 ft 310 kts 88°
2026-05-04 19:11 27.30256 87.07428 24565 ft 311 kts 86°
2026-05-04 19:11 27.30540 87.09841 24899 ft 312 kts 87°
2026-05-04 19:11 27.30816 87.12264 25217 ft 313 kts 86°
2026-05-04 19:12 27.31261 87.14451 25482 ft 318 kts 73°
2026-05-04 19:12 27.33416 87.18773 26076 ft 319 kts 47°
2026-05-04 19:12 27.34894 87.20409 26371 ft 318 kts 36°
2026-05-04 19:13 27.36667 87.21757 26647 ft 314 kts 23°
2026-05-04 19:13 27.38651 87.22752 26888 ft 312 kts 15°
2026-05-04 19:13 27.40668 87.23667 27191 ft 313 kts 16°
2026-05-04 19:13 27.42690 87.24607 27433 ft 315 kts 16°
2026-05-04 19:14 27.44590 87.25485 27671 ft 317 kts 16°
2026-05-04 19:14 27.46641 87.26422 27905 ft 319 kts 16°
2026-05-04 19:14 27.48703 87.27365 28233 ft 320 kts 17°
2026-05-04 19:14 27.50743 87.28309 28515 ft 323 kts 17°
2026-05-04 19:15 27.52823 87.29271 28732 ft 322 kts 16°
2026-05-04 19:15 27.54705 87.30134 28851 ft 323 kts 17°
2026-05-04 19:15 27.56794 87.31089 29031 ft 326 kts 17°
2026-05-04 19:15 27.58898 87.32057 29271 ft 328 kts 17°
2026-05-04 19:16 27.61016 87.33037 29490 ft 330 kts 17°
2026-05-04 19:16 27.63009 87.33958 29636 ft 331 kts 17°
2026-05-04 19:16 27.65141 87.34942 29705 ft 330 kts 18°
2026-05-04 19:17 27.69409 87.36905 29895 ft 332 kts 18°
2026-05-04 19:17 27.71353 87.37804 30104 ft 334 kts 18°
2026-05-04 19:17 27.73511 87.38804 30306 ft 335 kts 18°
2026-05-04 19:17 27.75669 87.39802 30432 ft 335 kts 17°
2026-05-04 19:18 27.77837 87.40802 30576 ft 338 kts 17°
2026-05-04 19:18 27.79821 87.41716 30689 ft 340 kts 18°
2026-05-04 19:18 27.81988 87.42809 30855 ft 344 kts 25°
2026-05-04 19:18 27.83975 87.44307 31088 ft 343 kts 37°
2026-05-04 19:19 27.85730 87.46174 31107 ft 351 kts 47°
2026-05-04 19:19 27.88980 87.50032 31101 ft 362 kts 46°
2026-05-04 19:20 27.92469 87.54150 31103 ft 364 kts 46°
2026-05-04 19:20 27.95838 87.58148 31099 ft 370 kts 46°
2026-05-04 19:21 27.99419 87.62394 31076 ft 373 kts 46°
2026-05-04 19:21 28.02832 87.66445 31087 ft 370 kts 46°
2026-05-04 19:22 28.06384 87.70666 31081 ft 369 kts 46°
2026-05-04 19:22 28.09806 87.74735 31066 ft 368 kts 46°
2026-05-04 19:23 28.13343 87.78947 31056 ft 368 kts 46°
2026-05-04 19:23 28.16685 87.82933 31078 ft 365 kts 46°
2026-05-04 19:24 28.20169 87.87084 31116 ft 364 kts 46°
2026-05-04 19:24 28.23664 87.91261 31108 ft 365 kts 46°
2026-05-04 19:25 28.27003 87.95253 31095 ft 366 kts 46°
2026-05-04 19:25 28.30050 87.99837 31099 ft 365 kts 65°
2026-05-04 19:25 28.31023 88.02486 31101 ft 361 kts 76°
2026-05-04 19:26 28.31671 88.04965 31094 ft 360 kts 78°
2026-05-04 19:26 28.33136 88.10409 31090 ft 361 kts 77°
2026-05-04 19:27 28.34519 88.15574 31094 ft 362 kts 77°
2026-05-04 19:27 28.35980 88.21046 31089 ft 362 kts 77°
2026-05-04 19:28 28.37415 88.26419 31091 ft 361 kts 77°
2026-05-04 19:28 28.38826 88.31716 31091 ft 361 kts 77°
2026-05-04 19:29 28.40280 88.37181 31091 ft 361 kts 77°
2026-05-04 19:29 28.41666 88.42402 31094 ft 361 kts 77°
2026-05-04 19:30 28.43117 88.47879 31098 ft 362 kts 76°
2026-05-04 19:30 28.44520 88.53181 31101 ft 362 kts 76°
2026-05-04 19:31 28.45957 88.58623 31103 ft 362 kts 76°
2026-05-04 19:31 28.47337 88.63858 31107 ft 362 kts 76°
2026-05-04 19:32 28.48783 88.69352 31109 ft 363 kts 76°
2026-05-04 19:32 28.50180 88.74673 31113 ft 362 kts 76°
2026-05-04 19:33 28.51610 88.80124 31119 ft 361 kts 76°
2026-05-04 19:33 28.52908 88.85080 31115 ft 362 kts 76°
2026-05-04 19:34 28.54340 88.90564 31121 ft 361 kts 76°
2026-05-04 19:34 28.55702 88.95785 31118 ft 360 kts 76°
2026-05-04 19:35 28.57124 89.01240 31127 ft 360 kts 76°
2026-05-04 19:35 28.58494 89.06514 31130 ft 360 kts 76°
2026-05-04 19:36 28.59910 89.11968 31128 ft 359 kts 76°
2026-05-04 19:36 28.61261 89.17186 31124 ft 359 kts 76°
2026-05-04 19:37 28.62672 89.22643 31133 ft 360 kts 75°
2026-05-04 19:37 28.64035 89.27922 31129 ft 359 kts 75°
2026-05-04 19:38 28.65441 89.33379 31124 ft 359 kts 75°
2026-05-04 19:38 28.66786 89.38610 31133 ft 358 kts 75°
2026-05-04 19:39 28.68185 89.44053 31130 ft 359 kts 75°
2026-05-04 19:39 28.69512 89.49240 31135 ft 358 kts 75°
2026-05-04 19:40 28.70907 89.54684 31121 ft 357 kts 75°
2026-05-04 19:40 28.72245 89.59931 31126 ft 357 kts 75°
2026-05-04 19:41 28.73397 89.64441 31122 ft 355 kts 75°
2026-05-04 19:41 28.74728 89.69678 31118 ft 357 kts 75°
2026-05-04 19:42 28.76329 89.75984 31123 ft 356 kts 75°
2026-05-04 19:42 28.77748 89.80127 31116 ft 354 kts 63°
2026-05-04 19:43 28.80033 89.85083 31108 ft 353 kts 60°
2026-05-04 19:43 28.82127 89.89526 31113 ft 353 kts 60°
2026-05-04 19:44 28.84449 89.94456 31112 ft 353 kts 60°
2026-05-04 19:44 28.86625 89.99083 31108 ft 352 kts 60°
2026-05-04 19:45 28.88467 90.04236 31114 ft 352 kts 78°
2026-05-04 19:45 28.89352 90.09454 31106 ft 352 kts 78°
2026-05-04 19:46 28.90632 90.14850 31099 ft 352 kts 75°
2026-05-04 19:46 28.91742 90.19945 31082 ft 352 kts 77°
2026-05-04 19:47 28.92938 90.25326 31079 ft 349 kts 76°
2026-05-04 19:47 28.94091 90.30523 31062 ft 349 kts 76°
2026-05-04 19:48 28.95274 90.35891 31050 ft 348 kts 76°
2026-05-04 19:48 28.96417 90.41064 31039 ft 347 kts 76°
2026-05-04 19:49 28.97592 90.46411 31029 ft 347 kts 76°
2026-05-04 19:49 28.98713 90.51513 31025 ft 347 kts 76°
2026-05-04 19:50 28.99881 90.56833 31024 ft 348 kts 76°
2026-05-04 19:50 29.01001 90.61966 31013 ft 348 kts 76°
2026-05-04 19:51 29.02175 90.67333 31010 ft 348 kts 76°
2026-05-04 19:51 29.03290 90.72455 31007 ft 347 kts 76°
2026-05-04 19:52 29.04459 90.77832 31004 ft 348 kts 76°
2026-05-04 19:52 29.05570 90.82952 31010 ft 349 kts 76°
2026-05-04 19:53 29.06736 90.88334 31002 ft 350 kts 76°
2026-05-04 19:53 29.07838 90.93437 31006 ft 349 kts 76°
2026-05-04 19:54 29.09226 90.98749 30985 ft 349 kts 65°
2026-05-04 19:54 29.11275 91.03472 30987 ft 347 kts 61°
2026-05-04 19:55 29.13505 91.08361 30994 ft 346 kts 60°
2026-05-04 19:55 29.15665 91.13090 30991 ft 347 kts 60°
2026-05-04 19:56 29.17899 91.17986 30990 ft 346 kts 60°
2026-05-04 19:56 29.20027 91.22643 30988 ft 347 kts 60°
2026-05-04 19:57 29.22255 91.27525 30985 ft 345 kts 60°
2026-05-04 19:57 29.24141 91.32560 31002 ft 346 kts 76°
2026-05-04 19:57 29.24512 91.35235 31004 ft 347 kts 87°
2026-05-04 19:58 29.24577 91.37935 30994 ft 346 kts 90°
2026-05-04 19:58 29.24637 91.40722 30697 ft 356 kts 89°
2026-05-04 19:58 29.24715 91.43600 30235 ft 365 kts 89°
2026-05-04 19:58 29.24785 91.46310 29755 ft 363 kts 89°
2026-05-04 19:59 29.24853 91.49201 29288 ft 363 kts 89°
2026-05-04 19:59 29.24919 91.52088 28829 ft 363 kts 89°
2026-05-04 19:59 29.24987 91.54941 28363 ft 363 kts 89°
2026-05-04 19:59 29.25049 91.57462 27945 ft 364 kts 89°
2026-05-04 20:00 29.25115 91.60355 27468 ft 363 kts 90°
2026-05-04 20:00 29.25180 91.63247 26991 ft 363 kts 90°
2026-05-04 20:00 29.25246 91.66138 26516 ft 364 kts 90°
2026-05-04 20:00 29.25308 91.68848 26072 ft 364 kts 90°
2026-05-04 20:01 29.25374 91.71732 25594 ft 358 kts 90°
2026-05-04 20:01 29.25435 91.74462 25138 ft 331 kts 90°
2026-05-04 20:01 29.25478 91.77034 24723 ft 315 kts 93°
2026-05-04 20:01 29.25412 91.79199 24369 ft 305 kts 93°
2026-05-04 20:02 29.25346 91.81606 24002 ft 297 kts 93°
2026-05-04 20:02 29.25332 91.83949 23549 ft 294 kts 92°
2026-05-04 20:02 29.25344 91.86271 23012 ft 290 kts 90°
2026-05-04 20:02 29.25397 91.88356 22493 ft 288 kts 91°
2026-05-04 20:03 29.25381 91.90633 21995 ft 284 kts 92°
2026-05-04 20:03 29.25397 91.92864 21547 ft 278 kts 88°
2026-05-04 20:03 29.25626 91.95042 21095 ft 274 kts 81°
2026-05-04 20:03 29.26054 91.97024 20606 ft 273 kts 74°
2026-05-04 20:04 29.26598 91.99112 20082 ft 272 kts 76°
2026-05-04 20:04 29.27083 92.01187 19600 ft 268 kts 76°
2026-05-04 20:04 29.27568 92.03218 19105 ft 266 kts 77°
2026-05-04 20:04 29.27966 92.05009 18741 ft 262 kts 76°
2026-05-04 20:05 29.28533 92.06981 18216 ft 262 kts 73°
2026-05-04 20:05 29.29064 92.08970 17593 ft 260 kts 77°
2026-05-04 20:05 29.29412 92.10993 17053 ft 258 kts 85°
2026-05-04 20:05 29.29397 92.12853 16807 ft 243 kts 104°
2026-05-04 20:06 29.28782 92.14635 16358 ft 240 kts 124°
2026-05-04 20:06 29.27874 92.16145 16346 ft 222 kts 129°
2026-05-04 20:06 29.27021 92.17552 16408 ft 211 kts 122°
2026-05-04 20:06 29.26468 92.18908 16415 ft 208 kts 112°
2026-05-04 20:07 29.26067 92.20523 16532 ft 214 kts 103°
2026-05-04 20:07 29.25808 92.22234 16525 ft 225 kts 101°
2026-05-04 20:07 29.25461 92.23962 16398 ft 222 kts 108°
2026-05-04 20:07 29.24962 92.25510 16331 ft 216 kts 116°
2026-05-04 20:08 29.24343 92.27081 16311 ft 219 kts 116°
2026-05-04 20:08 29.23783 92.28681 16125 ft 207 kts 112°
2026-05-04 20:08 29.23325 92.30195 16147 ft 197 kts 108°
2026-05-04 20:08 29.23091 92.31541 16237 ft 173 kts 99°
2026-05-04 20:09 29.22957 92.32857 16240 ft 165 kts 101°
2026-05-04 20:09 29.22825 92.34195 16314 ft 173 kts 95°
2026-05-04 20:09 29.22913 92.35577 16355 ft 179 kts 77°
2026-05-04 20:09 29.23390 92.36769 16264 ft 190 kts 58°
2026-05-04 20:10 29.24205 92.37960 16350 ft 186 kts 48°
2026-05-04 20:10 29.25189 92.38934 16296 ft 192 kts 43°
2026-05-04 20:10 29.25882 92.40129 16384 ft 183 kts 83°
2026-05-04 20:10 29.25821 92.41564 16187 ft 191 kts 99°
2026-05-04 20:11 29.25713 92.43062 15995 ft 189 kts 90°
2026-05-04 20:11 29.25740 92.44505 15822 ft 177 kts 94°
2026-05-04 20:11 29.25554 92.45811 15568 ft 173 kts 116°
2026-05-04 20:11 29.24827 92.46867 15128 ft 173 kts 135°
2026-05-04 20:12 29.23979 92.47811 14749 ft 168 kts 138°
2026-05-04 20:12 29.23122 92.48673 14586 ft 157 kts 141°
2026-05-04 20:12 29.22318 92.49422 14542 ft 158 kts 143°
2026-05-04 20:12 29.21473 92.50102 14438 ft 163 kts 147°
2026-05-04 20:13 29.20526 92.50810 14407 ft 161 kts 149°
2026-05-04 20:13 29.19565 92.51441 14440 ft 158 kts 152°
2026-05-04 20:13 29.18659 92.51978 14364 ft 162 kts 153°
2026-05-04 20:13 29.17674 92.52565 14334 ft 161 kts 150°
2026-05-04 20:14 29.16691 92.53186 14283 ft 162 kts 153°
2026-05-04 20:14 29.15811 92.53957 14173 ft 164 kts 124°
2026-05-04 20:14 29.15385 92.55016 14192 ft 160 kts 105°
2026-05-04 20:14 29.15191 92.56316 14137 ft 161 kts 101°
2026-05-04 20:15 29.14955 92.57546 14118 ft 160 kts 104°
2026-05-04 20:15 29.14697 92.58790 14045 ft 162 kts 104°
2026-05-04 20:15 29.14475 92.59942 14054 ft 160 kts 102°
2026-05-04 20:15 29.14259 92.61161 14336 ft 159 kts 102°
2026-05-04 20:16 29.14018 92.62433 14418 ft 169 kts 103°
2026-05-04 20:16 29.13757 92.63753 14460 ft 171 kts 104°
2026-05-04 20:16 29.13512 92.65091 14446 ft 175 kts 102°
2026-05-04 20:16 29.13298 92.66345 14415 ft 179 kts 103°
2026-05-04 20:17 29.12851 92.67652 14465 ft 176 kts 119°
2026-05-04 20:17 29.12177 92.68795 14517 ft 168 kts 125°
2026-05-04 20:17 29.11503 92.69852 14524 ft 162 kts 128°
2026-05-04 20:17 29.10844 92.70732 14525 ft 160 kts 131°
2026-05-04 20:18 29.10117 92.71736 14368 ft 167 kts 126°
2026-05-04 20:18 29.09542 92.72887 14286 ft 165 kts 113°
2026-05-04 20:18 29.09180 92.74136 14198 ft 169 kts 105°
2026-05-04 20:18 29.08953 92.75383 14196 ft 192 kts 99°
2026-05-04 20:19 29.08772 92.76984 14166 ft 212 kts 97°
2026-05-04 20:19 29.08631 92.78704 14180 ft 224 kts 96°
2026-05-04 20:19 29.08484 92.80474 14220 ft 230 kts 96°
2026-05-04 20:19 29.08351 92.82178 14249 ft 233 kts 96°
2026-05-04 20:20 29.08192 92.83988 14307 ft 235 kts 96°
2026-05-04 20:20 29.08040 92.85854 14373 ft 235 kts 97°
2026-05-04 20:20 29.07837 92.87682 14610 ft 225 kts 98°
2026-05-04 20:20 29.07683 92.89332 15155 ft 215 kts 97°
2026-05-04 20:21 29.07479 92.90907 15767 ft 205 kts 101°
2026-05-04 20:21 29.07234 92.92510 16256 ft 208 kts 102°
2026-05-04 20:21 29.06733 92.95717 16930 ft 222 kts 101°
2026-05-04 20:22 29.06482 92.97498 17241 ft 230 kts 103°
2026-05-04 20:22 29.06172 92.99282 17688 ft 231 kts 102°
2026-05-04 20:22 29.05882 93.01110 18014 ft 236 kts 102°
2026-05-04 20:22 29.05618 93.02813 18392 ft 237 kts 102°
2026-05-04 20:23 29.05312 93.04758 18251 ft 258 kts 104°
2026-05-04 20:23 29.04877 93.06719 18244 ft 246 kts 109°
2026-05-04 20:23 29.04355 93.08449 18268 ft 223 kts 113°
2026-05-04 20:23 29.03819 93.10011 18006 ft 227 kts 115°
2026-05-04 20:24 29.03186 93.11676 17655 ft 230 kts 116°
2026-05-04 20:24 29.02687 93.13375 17186 ft 221 kts 103°
2026-05-04 20:24 29.02496 93.15098 16654 ft 217 kts 95°
2026-05-04 20:24 29.02354 93.16793 16202 ft 211 kts 98°
2026-05-04 20:25 29.02151 93.18322 15808 ft 204 kts 102°
2026-05-04 20:25 29.01914 93.19877 15440 ft 195 kts 100°
2026-05-04 20:25 29.01702 93.21398 15069 ft 188 kts 102°
2026-05-04 20:25 29.01477 93.22916 14819 ft 202 kts 102°
2026-05-04 20:26 29.01187 93.24373 14726 ft 196 kts 105°
2026-05-04 20:26 29.00942 93.25825 14454 ft 180 kts 98°
2026-05-04 20:26 29.00757 93.27190 14312 ft 175 kts 100°
2026-05-04 20:26 29.00563 93.28574 14149 ft 178 kts 97°
2026-05-04 20:27 29.00692 93.29744 14188 ft 170 kts 72°
2026-05-04 20:27 29.01060 93.30545 14085 ft 175 kts 54°
2026-05-04 20:27 29.01867 93.31576 14038 ft 174 kts 49°
2026-05-04 20:27 29.02676 93.32589 14005 ft 176 kts 53°
2026-05-04 20:28 29.03440 93.33726 14046 ft 182 kts 54°
2026-05-04 20:28 29.04404 93.35112 14122 ft 180 kts 52°
2026-05-04 20:28 29.04970 93.35843 14112 ft 184 kts 47°
2026-05-04 20:28 29.05944 93.36812 14100 ft 187 kts 37°
2026-05-04 20:29 29.07096 93.37488 14147 ft 187 kts 24°
2026-05-04 20:29 29.08195 93.38024 14155 ft 189 kts 25°
2026-05-04 20:29 29.09378 93.38627 14274 ft 183 kts 26°
2026-05-04 20:29 29.10505 93.39292 14349 ft 183 kts 31°
2026-05-04 20:30 29.11616 93.40028 14338 ft 187 kts 32°
2026-05-04 20:30 29.12260 93.41041 14485 ft 173 kts 82°
2026-05-04 20:30 29.12416 93.42372 14621 ft 173 kts 73°
2026-05-04 20:30 29.12983 93.43653 14514 ft 187 kts 55°
2026-05-04 20:31 29.13930 93.44699 14458 ft 192 kts 35°
2026-05-04 20:31 29.14965 93.45454 14417 ft 194 kts 34°
2026-05-04 20:31 29.15966 93.46450 14396 ft 194 kts 56°
2026-05-04 20:31 29.16654 93.47789 14312 ft 195 kts 64°
2026-05-04 20:32 29.17162 93.49224 14283 ft 194 kts 74°
2026-05-04 20:32 29.17455 93.50628 14211 ft 196 kts 83°
2026-05-04 20:32 29.17579 93.52188 14132 ft 196 kts 87°
2026-05-04 20:32 29.17657 93.53738 13975 ft 192 kts 88°
2026-05-04 20:33 29.17690 93.55258 13693 ft 191 kts 92°
2026-05-04 20:33 29.17624 93.56622 13585 ft 185 kts 96°
2026-05-04 20:33 29.17526 93.58076 13418 ft 183 kts 96°
2026-05-04 20:33 29.17404 93.59507 13184 ft 184 kts 97°
2026-05-04 20:34 29.17082 93.60875 13203 ft 171 kts 118°
2026-05-04 20:34 29.16539 93.61943 13105 ft 171 kts 126°
2026-05-04 20:34 29.15875 93.63082 12991 ft 171 kts 121°
2026-05-04 20:34 29.15410 93.64309 12948 ft 169 kts 107°
2026-05-04 20:35 29.15337 93.65674 12724 ft 178 kts 82°
2026-05-04 20:35 29.15597 93.67042 12550 ft 179 kts 79°
2026-05-04 20:35 29.15699 93.68316 12521 ft 171 kts 104°
2026-05-04 20:35 29.15146 93.69498 12308 ft 165 kts 130°
2026-05-04 20:36 29.14305 93.70333 12099 ft 158 kts 143°
2026-05-04 20:36 29.13482 93.71147 11903 ft 153 kts 131°
2026-05-04 20:36 29.13083 93.72093 12044 ft 141 kts 97°
2026-05-04 20:36 29.13265 93.73237 12146 ft 157 kts 68°
2026-05-04 20:37 29.13859 93.74310 12183 ft 158 kts 58°
2026-05-04 20:37 29.14393 93.75364 12297 ft 150 kts 67°
2026-05-04 20:37 29.14464 93.76418 12331 ft 146 kts 115°
2026-05-04 20:37 29.13844 93.77395 12059 ft 154 kts 129°
2026-05-04 20:38 29.13235 93.78343 11865 ft 139 kts 123°
2026-05-04 20:38 29.12777 93.79285 11622 ft 136 kts 119°
2026-05-04 20:38 29.12447 93.80177 11380 ft 132 kts 111°
2026-05-04 20:38 29.12395 93.81192 11148 ft 128 kts 80°
2026-05-04 20:39 29.12786 93.82116 10906 ft 135 kts 59°
2026-05-04 20:39 29.13130 93.83079 10805 ft 125 kts 81°
2026-05-04 20:39 29.13192 93.83972 10708 ft 123 kts 93°
2026-05-04 20:39 29.13142 93.84961 10663 ft 124 kts 96°
2026-05-04 20:40 29.13006 93.85920 10687 ft 119 kts 102°
2026-05-04 20:40 29.12872 93.86828 10754 ft 114 kts 99°
2026-05-04 20:40 29.12835 93.87630 10823 ft 109 kts 83°
2026-05-04 20:40 29.13095 93.88504 10776 ft 124 kts 63°
2026-05-04 20:41 29.13634 93.89290 10831 ft 126 kts 46°
2026-05-04 20:41 29.14375 93.89823 10781 ft 131 kts 24°
2026-05-04 20:41 29.15266 93.89962 10767 ft 129 kts 355°
2026-05-04 20:41 29.16082 93.89985 10822 ft 122 kts 17°
2026-05-04 20:42 29.16844 93.90390 10798 ft 124 kts 33°
2026-05-04 20:42 29.17514 93.91021 10709 ft 130 kts 50°
2026-05-04 20:42 29.18000 93.91774 10763 ft 106 kts 60°
2026-05-04 20:42 29.18364 93.92438 10714 ft 109 kts 62°
2026-05-04 20:43 29.18662 93.93204 10754 ft 105 kts 71°
2026-05-04 20:43 29.18886 93.93990 10826 ft 103 kts 73°
2026-05-04 20:43 29.19092 93.94776 10884 ft 104 kts 75°
2026-05-04 20:43 29.19288 93.95505 10890 ft 107 kts 75°
2026-05-04 20:44 29.19444 93.96346 10870 ft 112 kts 83°
2026-05-04 20:44 29.19519 93.97219 10911 ft 109 kts 84°
2026-05-04 20:44 29.19598 93.98088 10918 ft 111 kts 87°
2026-05-04 20:44 29.19678 93.98853 10943 ft 110 kts 82°
2026-05-04 20:45 29.19791 93.99718 10953 ft 111 kts 82°
2026-05-04 20:45 29.19911 94.00592 10976 ft 110 kts 82°
2026-05-04 20:45 29.20015 94.01459 10998 ft 110 kts 85°
2026-05-04 20:45 29.20093 94.02248 10992 ft 112 kts 84°
2026-05-04 20:46 29.20204 94.03121 11023 ft 110 kts 85°
2026-05-04 20:46 29.20258 94.03987 11049 ft 109 kts 88°
2026-05-04 20:46 29.20296 94.04859 11056 ft 110 kts 90°
2026-05-04 20:46 29.20298 94.05637 11012 ft 115 kts 91°
2026-05-04 20:47 29.20293 94.06559 10976 ft 116 kts 93°
2026-05-04 20:47 29.20232 94.07473 10967 ft 114 kts 97°
2026-05-04 20:47 29.20186 94.08337 11058 ft 107 kts 92°
2026-05-04 20:47 29.20185 94.09110 11108 ft 105 kts 91°
2026-05-04 20:48 29.20193 94.09932 11190 ft 102 kts 90°
2026-05-04 20:48 29.20203 94.10776 11187 ft 108 kts 93°
2026-05-04 20:48 29.20135 94.11642 11184 ft 110 kts 98°
2026-05-04 20:48 29.20040 94.12508 11200 ft 110 kts 99°
2026-05-04 20:49 29.19935 94.13286 11241 ft 107 kts 98°
2026-05-04 20:49 29.19874 94.14147 11215 ft 112 kts 97°
2026-05-04 20:49 29.19807 94.15061 11166 ft 115 kts 89°
2026-05-04 20:49 29.19941 94.15959 11134 ft 117 kts 76°
2026-05-04 20:50 29.20195 94.16772 11057 ft 121 kts 70°
2026-05-04 20:50 29.20554 94.17641 11003 ft 120 kts 59°
2026-05-04 20:50 29.21007 94.18441 10980 ft 119 kts 57°
2026-05-04 20:50 29.21477 94.19214 10970 ft 116 kts 55°
2026-05-04 20:51 29.21903 94.19861 10955 ft 116 kts 54°
2026-05-04 20:51 29.22404 94.20600 10900 ft 118 kts 53°
2026-05-04 20:51 29.22885 94.21352 10875 ft 117 kts 57°
2026-05-04 20:51 29.23346 94.22131 10837 ft 118 kts 58°
2026-05-04 20:52 29.23764 94.22851 10773 ft 120 kts 57°
2026-05-04 20:52 29.24246 94.23632 10720 ft 120 kts 56°
2026-05-04 20:52 29.24748 94.24402 10646 ft 121 kts 55°
2026-05-04 20:52 29.25234 94.25180 10609 ft 118 kts 57°
2026-05-04 20:53 29.25668 94.25904 10565 ft 119 kts 57°
2026-05-04 20:53 29.26100 94.26634 10538 ft 117 kts 59°
2026-05-04 20:53 29.26568 94.27402 10489 ft 118 kts 55°
2026-05-04 20:53 29.27048 94.28152 10462 ft 117 kts 56°
2026-05-04 20:54 29.27519 94.28910 10368 ft 116 kts 56°
2026-05-04 20:54 29.27944 94.29593 10253 ft 115 kts 56°
2026-05-04 20:54 29.28407 94.30335 10136 ft 114 kts 57°
2026-05-04 20:54 29.28861 94.31076 9972 ft 112 kts 57°
2026-05-04 20:55 29.29292 94.31773 9813 ft 105 kts 57°
2026-05-04 20:55 29.29660 94.32368 9680 ft 88 kts 57°
2026-05-04 20:55 29.29960 94.32856 9678 ft 65 kts 53°
2026-05-04 20:55 29.30191 94.33228 9689 ft 51 kts 54°
2026-05-04 20:56 29.30386 94.33539 9693 ft 46 kts 54°
2026-05-04 20:56 29.30555 94.33812 9696 ft 26 kts 53°
2026-05-04 20:56 29.30621 94.33858 9695 ft 13 kts 330°
2026-05-04 20:56 29.30703 94.33793 9694 ft 9 kts 323°
2026-05-04 20:57 29.30753 94.33753 9686 ft 12 kts 326°
2026-05-04 20:57 29.30806 94.33700 9686 ft 8 kts 269°
2026-05-04 20:57 29.30775 94.33644 9684 ft 10 kts 234°
2026-05-04 20:57 29.30730 94.33570 9683 ft 12 kts 234°
2026-05-04 20:58 29.30690 94.33496 9688 ft 8 kts 274°
2026-05-04 20:58 29.30714 94.33467 9685 ft 4 kts 324°
2026-05-04 20:58 29.30727 94.33457 9687 ft 0 kts 323°